Lancaster, CA

10:34 AM PDT on March 27, 2017 (GMT -0700)
Gen Fox

Weather History for KWJF - August, 2013

Change the Weather History Date:

Saturday, August 3, 2013

  Actual Average Record
Temperature  
Mean Temperature 79 °F 83 °F  
Max Temperature 96 °F 99 °F 107 °F (1969)
Min Temperature 62 °F 66 °F 55 °F (2004)
Degree Days  
Heating Degree Days 0    
Month to date heating degree days 0  
Since 1 June heating degree days 0  
Since 1 July heating degree days 0  
Cooling Degree Days 14    
Month to date cooling degree days 48  
Year to date cooling degree days 1400  
Since 1 June cooling degree days 1142  
Growing Degree Days 30 (Base 50)    
Moisture  
Dew Point 36 °F    
Average Humidity 23    
Maximum Humidity 37    
Minimum Humidity 8    
Precipitation  
Precipitation 0.00 in 0.01 in 0.02 in (1999)
Month to date precipitation 0.00 0.01  
Year to date precipitation 1.12 5.01  
Since 1 July precipitation 0.02  
Snow  
Snow 0.00 in - 0.00 in ()
Month to date snowfall 0.0  
Since 1 June snowfall 0.0  
Since 1 July snowfall 0.0  
Snow Depth 0.00 in    
Sea Level Pressure  
Sea Level Pressure 29.90 in    
Wind  
Wind Speed 12 mph (WSW)    
Max Wind Speed 25 mph    
Max Gust Speed 30 mph    
Visibility 10 miles    
Events      
T = Trace of Precipitation, MM = Missing Value Source: NWS Daily Summary

Daily Weather History Graph

Daily Weather History Graph

Search for Another Location

Airport or City:

Trip Planner

Search our weather history database for the weather conditions in past years. The results will help you decide how hot, cold, wet, or windy it might be!

Date:

Astronomy

Aug. 03, 2013 Rise Set
Actual Time 6:04 AM PDT 7:52 PM PDT
Civil Twilight 5:37 AM PDT 8:20 PM PDT
Nautical Twilight 5:03 AM PDT 8:53 PM PDT
Astronomical Twilight 4:28 AM PDT 9:28 PM PDT
Moon 3:19 AM PDT (8/3) 5:37 PM PDT (8/3)
Length of Visible Light 14h 43m
Length of Day
13h 48m
Waning Crescent, 9% of the Moon is Illuminated
Aug 3
Waning Crescent
Aug 6
New
Aug 14
First Quarter
Aug 20
Full
Aug 28
Last Quarter

Hourly Weather History & Observations

Time (PDT) Temp. Dew Point Humidity Pressure Visibility Wind Dir Wind Speed Gust Speed Precip Events Conditions
12:56 AM 71.1 °F 37.9 °F 30% 29.90 in 10.0 mi SW 12.7 mph - N/A   Clear
1:56 AM 69.1 °F 41.0 °F 36% 29.90 in 10.0 mi SW 12.7 mph - N/A   Clear
2:56 AM 69.1 °F 41.0 °F 36% 29.88 in 10.0 mi WSW 15.0 mph - N/A   Clear
3:56 AM 66.9 °F 39.9 °F 37% 29.89 in 10.0 mi WSW 9.2 mph - N/A   Clear
4:56 AM 66.9 °F 37.9 °F 34% 29.90 in 10.0 mi WSW 10.4 mph - N/A   Clear
5:56 AM 68.0 °F 36.0 °F 31% 29.91 in 10.0 mi WSW 9.2 mph - N/A   Clear
6:56 AM 64.0 °F 35.1 °F 34% 29.93 in 10.0 mi Calm Calm - N/A   Clear
7:56 AM 73.9 °F 35.1 °F 24% 29.94 in 10.0 mi SW 4.6 mph - N/A   Clear
8:56 AM 82.0 °F 32.0 °F 16% 29.93 in 10.0 mi WSW 10.4 mph - N/A   Clear
9:56 AM 84.9 °F 30.0 °F 14% 29.93 in 10.0 mi WSW 6.9 mph - N/A   Clear
10:56 AM 88.0 °F 28.9 °F 12% 29.92 in 10.0 mi West 9.2 mph - N/A   Clear
11:56 AM 90.0 °F 27.0 °F 10% 29.91 in 10.0 mi Variable 3.5 mph - N/A   Clear
12:56 PM 93.0 °F 25.0 °F 9% 29.90 in 10.0 mi West 8.1 mph - N/A   Clear
1:56 PM 95.0 °F 30.0 °F 10% 29.89 in 10.0 mi SW 10.4 mph 17.3 mph N/A   Clear
2:56 PM 95.0 °F 30.0 °F 10% 29.88 in 10.0 mi WSW 9.2 mph 19.6 mph N/A   Clear
3:56 PM 93.9 °F 28.9 °F 10% 29.87 in 10.0 mi SW 18.4 mph - N/A   Clear
4:56 PM 93.0 °F 35.1 °F 13% 29.87 in 10.0 mi SW 18.4 mph 25.3 mph N/A   Clear
5:56 PM 90.0 °F 41.0 °F 18% 29.86 in 10.0 mi WSW 24.2 mph 28.8 mph N/A   Clear
6:56 PM 86.0 °F 46.0 °F 25% 29.88 in 10.0 mi WSW 13.8 mph 25.3 mph N/A   Clear
7:56 PM 79.0 °F 48.9 °F 35% 29.89 in 10.0 mi WSW 19.6 mph - N/A   Clear
8:56 PM 77.0 °F 39.9 °F 26% 29.90 in 10.0 mi WSW 19.6 mph 27.6 mph N/A   Clear
9:56 PM 75.9 °F 35.1 °F 23% 29.91 in 10.0 mi WSW 16.1 mph - N/A   Clear
10:56 PM 73.0 °F 39.0 °F 29% 29.92 in 10.0 mi WSW 11.5 mph - N/A   Clear
11:56 PM 73.0 °F 36.0 °F 26% 29.92 in 10.0 mi SW 12.7 mph - N/A   Clear